COSMOS 2319

Satellite information

Favourite Embed

Satellite Type and Status

PAYLOADIN ORBIT

Key statistics

Satellite COSMOS 2319 at a glance.

Uptime

11018

Days in orbit

Revolutions

≈ 1.0

Per day

Orbit

OTHER

Other

Inclination

14.4

Latest

Satellite identification and parameters

Extended collection of information and parameters for COSMOS 2319.

Object identification

Identified? True

Debris? False

Object name: COSMOS 2319

International designator: 1995-045A

Object number (NORAD): 23653

Object ID (CCSDS): 23653

Country: COMMONWEALTH OF INDEPENDENT STATES (CIS)

Current information (Y/N): Y

RCS size: LARGE

Orbital parameters

Period: 1436.295 minutes

Inclination: 14.3947 deg

SMA: 42168.606 km

Apoapsis: 35825.034 km

Periapsis: 35755.909 km

RAAN: 354.4634 deg

Eccentricy: 0.00081963

Argument of periapsis: 243.9854 deg

Mean anomaly: 122.3961 deg

Mean motion: 1.00257966 rev/day

Mean motion (dot): -0.00000264 rev/day2

B* drag term: 0.0 1/REarth

Two-line elements (TLE)

Creation date: Oct. 28, 2025, 7:11 p.m.

Reference frame: TEME

Reference center: EARTH

Epoch: Oct. 28, 2025, noon UTC

TLE line 0: 0 COSMOS 2319

TLE line 1: 1 23653U 95045A 25301.50056943 -.00000264 00000-0 00000-0 0 9998

TLE line 2: 2 23653 14.3947 354.4634 0008196 243.9854 122.3961 1.00257966110470

Live tracking on map

Real-time ground track for satellite COSMOS 2319.

In-orbit conjunctions

A list of the most updated potential collisions computed for object COSMOS 2319.

Target Orbit TCA Probability of collision Miss distance Type
GORIZONT 21 OTHER 2025-07-21 22:18:14 TBA 2155.0 (m) PAYLOAD

Associated space launch

Geostationary military relay satellite

COSMOS 2319 was lifted into orbit during the mission ‘Proton | Potok 9’, on board a Proton space rocket.

The launch took place on Aug. 30, 1995, 7:33 p.m. from 200/39 (200L).

For more information about the launch, click the button.

Launch to space Proton | Potok 9
Proton | Potok 9

Agency: N/A

Status: Launch Successful

Launch date: Aug. 30, 1995, 7:33 p.m. UTC

Rocket: Proton

Launch pad: 200/39 (200L)

Location: Baikonur Cosmodrome, Republic of Kazakhstan

...

Latest news about this satellite

There are no fresh news available about this satellite. Check back as we update our databases every day.


Newsletter sign-up

Weekly statistics, charts and insights to help you stay on top of the space industry.